Location: Newark
(34.0131°N, 4.3314°W)
Time: 21:41:02
(UTC+00:00)

A-11 Canister half - Pass Details

Date: 25 October 2019
Orbit: 1514 x 1685 km, 47.2° (Epoch: 19 November)

Event Time Altitude Azimuth Distance (km) Brightness Sun altitude
Rises 23:20:09 0° 217° (SW) 4,927 - -66.3°
Reaches altitude 10° 23:23:22 10° 215° (SW) 3,939 - -66.6°
Maximum altitude 23:33:19 64° 136° (SE) 1,818 - -67.3°
Drops below altitude 10° 23:43:04 10° 58° (ENE) 3,866 - -67.9°
Sets 23:46:11 0° 56° (NE) 4,833 - -68.0°
